Location: Chon Buri
(13.3670°N, 100.9830°E)
Time: 11:13:04
(UTC+07:00)

ISS - Visible Passes

Search period start: 17 November 2018 00:00
Search period end: 27 November 2018 00:00
Orbit: 402 x 408 km, 51.6° (Epoch: 17 November)

Date Brightness Start Highest point End Pass type
(mag) Time Alt. Az. Time Alt. Az. Time Alt. Az.
17 Nov -1.7 19:29:54 10° SW 19:31:21 24° SW 19:31:21 24° SW visible
18 Nov -2.1 05:22:06 10° NNW 05:25:01 29° NE 05:27:55 10° ESE visible
18 Nov -2.9 18:38:13 10° S 18:41:09 31° SE 18:42:07 26° E visible
19 Nov -1.0 04:32:32 12° NE 04:32:54 13° NE 04:34:24 10° ENE visible
19 Nov -1.6 19:22:55 10° WSW 19:25:26 21° NW 19:25:33 21° NW visible
20 Nov -3.8 05:15:58 32° WNW 05:17:16 62° SW 05:20:30 10° SSE visible
20 Nov -3.3 18:30:10 10° SW 18:33:21 55° NW 18:36:13 12° NNE visible
21 Nov -1.5 04:26:42 25° ESE 04:26:42 25° ESE 04:28:20 10° SE visible
22 Nov -1.7 05:10:08 15° SW 05:10:08 15° SW 05:11:28 10° SSW visible
22 Nov -1.1 18:23:35 10° W 18:25:36 15° NW 18:27:37 10° N visible
